Regional Weather Roundup
Issued by NWS Goodland, KS

Home | Current Version | Previous Version | Graphics & Text | Print | Product List | Glossary On
Versions: 1 2 3 4 5 6 7 8 9 10 11 12 13 14 15 16 17 18 19 20 21 22 23 24 25 26 27 28 29 30 31 32 33 34 35 36 37 38 39 40 41 42 43 44 45 46 47 48 49 50
000
ASUS43 KGLD 211959
RWRGLD

GOODLAND FORECAST AREA HOURLY WEATHER ROUNDUP
NATIONAL WEATHER SERVICE GOODLAND KS
100 PM MST SUN DEC 21 2014

...OFFICIAL OBSERVATIONS...

CITY           SKY/WX    TMP DP  RH WIND       PRES   REMARKS
GOODLAND KS    PTSUNNY   52  30  43 S12       29.58F
HILL CITY KS   CLOUDY    45  36  70 S12       29.65F
IMPERIAL NEB   CLOUDY    47  28  47 S7        29.56F
MCCOOK NEB     PTSUNNY   42  32  67 S13       29.59F
AKRON CO       CLOUDY    43  27  53 SW12      29.55F
BURLINGTON CO  PTSUNNY   48  28  46 S10       29.58F
LIMON CO       CLOUDY    50  19  29 W6        29.59F
$$

...UNOFFICIAL OBSERVATIONS...

CITY           SKY/WX    TMP DP  RH WIND       PRES   REMARKS
GOVE KS          N/A     43  32  65 MISG        N/A
KIT CARSON CO    N/A     44  33  66 MISG        N/A
YUMA CO          N/A     44  30  58 S8          N/A
$$



USA.gov is the U.S. government's official web portal to all federal, state and local government web resources and services.